Regional Weather Roundup
Issued by NWS

Home | Current Version | Previous Version | Text Only | Print | Product List | Glossary Off
Versions: 1 2 3 4 5 6 7 8 9 10 11 12 13 14 15 16 17 18 19 20 21 22 23 24 25 26 27 28 29 30 31 32 33 34 35 36 37 38 39 40 41 42 43 44 45 46 47 48 49 50

000
ASUS43 KIND 301109
RWRIN

WEATHER ROUNDUP FOR INDIANA
NATIONAL WEATHER SERVICE INDIANAPOLIS IN
700 AM EDT SUN APR 30 2017

NOTE: "FAIR" INDICATES FEW OR NO CLOUDS BELOW 12,000 FEET WITH NO
SIGNIFICANT WEATHER AND/OR OBSTRUCTIONS TO VISIBILITY.

* - STATION DOES NOT REPORT WEATHER SUCH AS PRECIPITATION OR FOG.

+ - STATION NOT QUALITY CONTROLLED BY THE NATIONAL WEATHER SERVICE.
    USE DATA WITH CAUTION...ESPECIALLY DEWPOINT AND RELATIVE
    HUMIDITY OBSERVATIONS.

INZ001>003-010>013-019-020-301200-
NORTHWEST INDIANA

CITY           SKY/WX    TMP DP  RH WIND       PRES   REMARKS
GARY /AIRPORT/ LGT RAIN  48  46  93 CALM      29.91S
KNOX *+        CLOUDY    45  34  65 E13       29.89S
LA PORTE +     CLOUDY    45  44  95 SE14G20   29.91R
MICHIGAN CITY+ CLOUDY    45  45 100 SE5       29.91R
MONTICELLO +   RAIN      48  47  95 E6        29.87S
RENSSELAER +   DRIZZLE   48  46  93 E13       29.88S
VALPARAISO     CLOUDY    48  46  93 E10       29.90R

$$

LMZ046-743>745-301200-
SOUTHERN LAKE MICHIGAN

STATION/POSITION TIME  TEMP    WIND        PRES    WAVE
                       AIR SEA DIR/SP/G            HT
                 (UTC) (F)     (DEG/KT/KT) (MB)    (FT)
BURNS HARBOR     1101   47      CALM  /  1 1013.2
MICHIGAN CITY    1040   45      80/  7/  8   N/A
5NW MICH CITY    1100   46 47                N/A     4

$$

INZ004-005-014>016-021>024-301200-
NORTH CENTRAL INDIANA

CITY           SKY/WX    TMP DP  RH WIND       PRES   REMARKS
GOSHEN         CLOUDY    45  41  86 E13       29.95F
LOGANSPORT +   LGT RAIN  46  45  93 E12       29.90F
PERU/GRISSOM   LGT RAIN  48  48 100 NE12      29.88F
ROCHESTER +    CLOUDY    46  45  93 E12       29.92S
SOUTH BEND     CLOUDY    44  42  93 SE18      29.93R
WARSAW +       CLOUDY    45  41  87 E8        29.94F

$$

INZ006>009-017-018-025>027-301200-
NORTHEAST INDIANA

CITY           SKY/WX    TMP DP  RH WIND       PRES   REMARKS
ANGOLA *+      CLOUDY    43  43 100 E8        29.96F
AUBURN +       CLOUDY    45  43  93 NE6       29.97S
FORT WAYNE     CLOUDY    47  44  90 NE8       29.95S
HUNTINGTON +   CLOUDY   N/A N/A N/A NE6       29.93F
KENDALLVILLE + CLOUDY    44  43  97 E9        29.96F FOG

$$

INZ028-029-035-036-043>045-051>053-301200-
WEST CENTRAL INDIANA

CITY           SKY/WX    TMP DP  RH WIND       PRES   REMARKS
CRAWFORDSVL +  CLOUDY    57  57 100 E6        29.83F
GREENCASTLE +  CLOUDY    59  59 100 E5        29.83F FOG
LAFAYETTE      LGT RAIN  51  51 100 E12       29.84F FOG
TERRE HAUTE    CLOUDY    63  61  93 E6        29.79F

$$

INZ030>032-037>040-046>048-054>057-064-065-301200-
CENTRAL INDIANA

CITY           SKY/WX    TMP DP  RH WIND       PRES   REMARKS
CP ATTERBURY + MOCLDY    57  55  94 CALM      29.86F FOG
COLUMBUS       PTCLDY    59  57  94 E3        29.85
FISHERS *+     CLOUDY    54  54 100 CALM      29.86F
FRANKFORT +    LGT RAIN  54  53  95 E7        29.88F
GREENWOOD *+   CLOUDY    57  56  94 E6        29.86F
INDIANAPOLIS   CLOUDY    57  56  96 E7        29.84F
-EAGLE CREEK   CLOUDY    58  55  90 E6        29.84F
KOKOMO +       LGT RAIN  48  47  96 NE10      29.90F
MT COMFORT *+  CLOUDY    55  54  94 SE3       29.87F
SHELBYVILLE    CLOUDY    61  57  87 SE7       29.85F
ZIONSVILLE +   CLOUDY    54  53  97 NE5       29.87F

$$

INZ033-034-041-042-049-050-058-059-301200-
EAST CENTRAL INDIANA

CITY           SKY/WX    TMP DP  RH WIND       PRES   REMARKS
MUNCIE         PTCLDY    53  51  93 SE7       29.89F
RICHMOND +     CLOUDY    52  52 100 SE10      29.93S FOG

$$

INZ060-061-067>069-081>083-085>088-301200-
SOUTHWEST INDIANA

CITY           SKY/WX    TMP DP  RH WIND       PRES   REMARKS
EVANSVILLE       N/A    N/A N/A N/A MISG      29.84R
WASHINGTON +   LGT RAIN  63  62  94 SE3       29.80F

$$

INZ062-063-066-070>080-084-089>092-301200-
SOUTH CENTRAL AND SOUTHEAST INDIANA

CITY           SKY/WX    TMP DP  RH WIND       PRES   REMARKS
BEDFORD +      CLOUDY    66  61  82 SE6       29.84
BLOOMINGTON    CLOUDY    63  60  90 SE5       29.83S
MADISON *+     CLOUDY    68  63  83 SE5       29.91F
NORTH VERNON + CLOUDY    68  63  83 SE5       29.88
SEYMOUR +      MOCLDY    70  64  83 SE7       29.86F

$$




USA.gov is the U.S. government's official web portal to all federal, state and local government web resources and services.